STARLINK-36827

Last updated on Wed Mar 25 2026 00:02:05 GMT+0000 (Coordinated Universal Time)

1 67908U 26036E 26083.50002314 -.02190850 00000+0 -72368-1 0 9994 2 67908 42.9984 161.8862 0001300 302.1849 75.4869 15.34157485 6021
UTC large
Height (km)
Speed (km/s)
/
Latitude / Longitude
Inclination (degrees)
Orbital Period (minutes)
Azimuth
Elevation
Range (km)
Doppler Factor

Next 0 passes for location: London (51.5072 / 0.1276)

Sorry there are no passes over London.